Location: Banska Bystrica
(0.0000°N, 19.1500°E)
Time: 13:10:01
(UTC+02:00)

Delta 198 - Pass Details

Date: 19 February 2019
Orbit: 458 x 1021 km, 24.8° (Epoch: 14 October)

Event Time Altitude Azimuth Distance (km) Brightness Sun altitude
Rises 19:34:50 0° 240° (WSW) 3,149 8.4 -23.9°
Reaches altitude 10° 19:37:08 10° 238° (WSW) 2,312 7.4 -24.5°
Maximum altitude 19:42:43 74° 153° (SSE) 897 4.2 -25.8°
Enters shadow 19:43:22 68° 106° (ESE) 940 4.1 -26.0°
